FALCON 9 R/B (46669 NORAD) Tracking and Keplerian Element Data

This shows tracking and keplerian element data for the satellite.

Feedback or suggestion? Click here.




ElementValue
Catalog46669
NameFALCON 9 R/B
Epoch Orbit466
Epoch Day304.53780204
Epoch Year2020
RAAN318.0621
Inclination52.9753
Eccentricity0.0003785
Argument of Perigee251.2207
Mean Anonmoly249.7186
Mean Motion16.53549421
Decay Rate0.36422278
L11 46669U 20070BS 20304.53780204 .36422278 12726-4 23392-3 0 9996
L22 46669 52.9753 318.0621 0003785 251.2207 249.7186 16.53549421 4660

Live tracking and technical data element details for FALCON 9 R/B (NORAD 46669). FALCON 9 R/B can be tracked NOW for your location showing map with azimuth and elevation plus other details from your city location.

Track the satellite on the map from your city or location and see movement details for azimuth, elevation, latitude, longitude, range, height, and movement on the map or in text.







IsCatalogInMostPopularTable: catalog: 46669, numindb: 3
Update: records affected: 1



GetName: 46669 FALCON 9 R/B

Hit Count: updated at: Sat, 31 Oct 2020 11:27:31 GMT